Location: Newark
(40.9833°N, 0.0333°W)
Time: 01:26:44
(UTC+00:00)

deb Explorer IX - Pass Details

Date: 30 October 2020
Orbit: 537 x 1105 km, 38.8° (Epoch: 02 December)

Event Time Altitude Azimuth Distance (km) Brightness Sun altitude
Rises 07:56:34 0° 274° (W) 3,559 ? 14.0°
Reaches altitude 10° 07:59:03 10° 272° (W) 2,692 ? 14.4°
Maximum altitude 08:05:36 67° 191° (SSW) 1,124 ? 15.5°
Drops below altitude 10° 08:12:49 10° 111° (ESE) 2,945 ? 16.6°
Sets 08:15:39 0° 109° (ESE) 3,914 ? 17.0°
